Regional Weather Roundup
Issued by NWS

Home | Current Version | Previous Version | Graphics & Text | Print | Product List | Glossary On
Versions: 1 2 3 4 5 6 7 8 9 10 11 12 13 14 15 16 17 18 19 20 21 22 23 24 25 26 27 28 29 30 31 32 33 34 35 36 37 38 39 40 41 42 43 44 45 46 47 48 49 50
000
ASUS43 KBIS 161710
RWRND

NORTH DAKOTA REGIONAL WEATHER ROUNDUP
NATIONAL WEATHER SERVICE BISMARCK ND
1100 AM CST TUE JAN 16 2018

NOTE: "FAIR" INDICATES FEW OR NO CLOUDS BELOW 12,000 FEET WITH NO
SIGNIFICANT WEATHER AND/OR OBSTRUCTIONS TO VISIBILITY.


NDZ001>003-009>011-017-161800-
NORTHWEST NORTH DAKOTA

CITY           SKY/WX    TMP DP  RH WIND       PRES   REMARKS
WILLISTON      SUNNY     -5 -11  75 SW7       30.43F WCI -19
MINOT          CLOUDY     5 -10  50 S15       30.46S WCI -13
MINOT AFB      CLOUDY     3  -9  56 S8        30.46F WCI -10
$$

NDZ018>021-031>035-040>046-161800-
SOUTHWEST NORTH DAKOTA

CITY           SKY/WX    TMP DP  RH WIND       PRES   REMARKS
BISMARCK       SUNNY    -10 -17  71 E3        30.61F
DICKINSON      SUNNY      3 -10  54 S17       30.41F WCI -17
GARRISON         N/A     -6 -12  75 S9        30.49F WCI -23
HETTINGER ARPT SUNNY     -3 -10  72 S5        30.49S WCI -13
$$

NDZ004>008-012>016-024-026-027-054-161800-
NORTHEAST NORTH DAKOTA

CITY           SKY/WX    TMP DP  RH WIND       PRES   REMARKS
GRAND FORKS    PTSUNNY   -7 -14  71 S10       30.68F WCI -25
GRND FRKS AFB  CLOUDY    -6 -16  61 SW9       30.66F WCI -22
DEVILS LAKE    FAIR      -4 -12  68 SW15      30.57F WCI -25
$$

NDZ022-023-025-028>030-036>039-047>053-161800-
SOUTHEAST NORTH DAKOTA

CITY           SKY/WX    TMP DP  RH WIND       PRES   REMARKS
FARGO          FAIR      -8 -15  71 S7        30.73F WCI -23
JAMESTOWN      CLOUDY    -4 -14  62 SW9       30.62F WCI -20
$$





USA.gov is the U.S. government's official web portal to all federal, state and local government web resources and services.